Content
SEND FEEDBACK

Daily
Averages
Monthly
Summary
United States of America

POTTS JUNCTION, GUAM


Home > North America > United States > Guam
Elevation: 360 feet     Latitude: 13 33N     Longitude: 144 50E

WEATHER
 
SELECT A DAY
Number of Records: 209,106;   Date Range: 1/1/95 - 8/12/14
 
SHARE

PRINT THIS DATA

[ ← Previous Day ]
WEATHER ALMANAC - APRIL 3, 2013
[ Next Day → ]
[ °C ]   °F
Weather ElementAverageHighLow
Temperature83.3 °F88 °F (11:54 am)78.1 °F (5:54 am)
Dewpoint70.9 °F73.9 °F (11:54 pm)68 °F (3:54 am)
Humidity66.3 %77 % (10:54 pm)55 % (1:54 pm)
Barometer29.86 in29.91 in (8:54 am)29.80 in (3:54 pm)
Wind Speed8.7 mph12.7 mph (8:54 am)
Wind Gust17.3 mph (10:54 am)
Weather ElementAverage
Visibility10 mi
Wind DirectionENE (82.2 °)

Weather ElementTotal
Precipitation---
Cooling Degree Days18.1 (Base 65)
Growing Degree Days33.1 (Base 50)
Averaged from 23 records on April 3, 2013
WEATHER CONDITIONS BREAKOUT
WIND DIRECTION BREAKOUT
WEATHER BY HOUR - APRIL 3, 2013
[ °C ]   °F
Local TimeTemperatureDewpointHumidityBarometerVisibilityWind DirectionWind SpeedGust SpeedPrecipitationEventsConditions
1:54 AM81.0 °F70.0 °F69 %29.88 in10.0 miEast (90°)10.4 mphClear
2:54 AM80.1 °F70.0 °F71 %29.88 in10.0 miEast (80°)9.2 mphPartly Cloudy
3:54 AM79.0 °F68.0 °F69 %29.88 in10.0 miEast (80°)6.9 mphClear
4:54 AM79.0 °F68.0 °F69 %29.88 in10.0 miEast (80°)5.8 mphPartly Cloudy
5:54 AM78.1 °F69.1 °F74 %29.88 in10.0 miEast (90°)3.5 mphPartly Cloudy
6:54 AM79.0 °F70.0 °F74 %29.90 in10.0 miEast (90°)4.6 mphPartly Cloudy
7:54 AM82.9 °F71.1 °F67 %29.90 in10.0 miEast (100°)11.5 mphPartly Cloudy
8:54 AM84.9 °F71.1 °F63 %29.91 in10.0 miEast (100°)12.7 mphPartly Cloudy
9:54 AM86.0 °F70.0 °F59 %29.90 in10.0 miEast (80°)9.2 mphPartly Cloudy
10:54 AM87.1 °F71.1 °F59 %29.89 in10.0 miESE (110°)8.1 mph17.3 mphPartly Cloudy
11:54 AM88.0 °F71.1 °F57 %29.88 in10.0 miEast (80°)12.7 mphScattered Clouds
12:54 PM87.1 °F71.1 °F59 %29.85 in10.0 miEast (100°)10.4 mphPartly Cloudy
1:54 PM88.0 °F70.0 °F55 %29.83 in10.0 miEast (90°)12.7 mphClear
2:54 PM88.0 °F70.0 °F55 %29.81 in10.0 miEast (80°)11.5 mphClear
3:54 PM87.1 °F72.0 °F61 %29.80 in10.0 miEast (90°)10.4 mphPartly Cloudy
4:54 PM86.0 °F71.1 °F61 %29.80 in10.0 miEast (100°)10.4 mphPartly Cloudy
5:54 PM84.9 °F72.0 °F65 %29.80 in10.0 miEast (80°)9.2 mphPartly Cloudy
6:54 PM82.9 °F72.0 °F69 %29.81 in10.0 miEast (80°)6.9 mphClear
7:54 PM82.9 °F72.0 °F69 %29.84 in10.0 miENE (60°)8.1 mphClear
8:54 PM81.0 °F72.0 °F74 %29.86 in10.0 miNE (50°)6.9 mphClear
9:54 PM81.0 °F72.0 °F74 %29.88 in10.0 miENE (60°)5.8 mphPartly Cloudy
10:54 PM81.0 °F73.0 °F77 %29.88 in10.0 miNE (50°)6.9 mphScattered Clouds
11:54 PM82.0 °F73.9 °F76 %29.88 in10.0 miENE (70°)6.9 mphClear
Hourly data recorded from PGUM, located miles away from Potts Junction, Guam







STORIES FROM OUR PARTNERS